Precipitable_Water
1.57 1.57 1.55 1.56 1.58 1.59 1.57 1.54 1.58 1.56 1.50 1.48 1.40 1.41 1.40 1.44 1.50 1.47 1.48 1.51 1.52 1.54 1.56 1.60 1.62 1.60 1.61 1.65 1.65 1.62 1.59 1.59 1.59 1.60 1.55 1.52 1.50 1.50 1.47 1.49 1.52 1.51
1.54 1.57 1.60 1.62 1.62 1.64 1.61 1.60 1.60 1.59 1.56 1.55 1.46 1.48 1.53 1.56 1.56 1.54 1.52 1.51 1.54 1.55 1.59 1.62 1.66 1.63 1.64 1.65 1.63 1.59 1.60 1.63 1.59 1.68 1.60 1.53 1.51 1.48 1.46 1.49 1.51 1.55
1.48 1.52 1.55 1.58 1.58 1.60 1.61 1.63 1.63 1.61 1.60 1.61 1.60 1.60 1.60 1.63 1.59 1.58 1.59 1.58 1.55 1.58 1.62 1.65 1.68 1.70 1.69 1.65 1.64 1.60 1.57 1.58 1.54 1.58 1.58 1.55 1.55 1.50 1.49 1.52 1.54 1.54
1.44 1.49 1.50 1.56 1.60 1.61 1.62 1.62 1.62 1.62 1.61 1.58 1.56 1.61 1.67 1.66 1.66 1.59 1.57 1.63 1.58 1.57 1.63 1.67 1.67 1.69 1.66 1.62 1.58 1.52 1.54 1.54 1.51 1.50 1.48 1.53 1.55 1.55 1.54 1.55 1.56 1.52
1.41 1.45 1.49 1.52 1.58 1.61 1.61 1.59 1.56 1.57 1.57 1.59 1.58 1.58 1.63 1.64 1.65 1.59 1.56 1.61 1.61 1.56 1.58 1.60 1.64 1.61 1.57 1.51 1.51 1.48 1.51 1.47 1.49 1.50 1.44 1.43 1.51 1.56 1.60 1.57 1.53 1.51
1.41 1.42 1.47 1.48 1.53 1.54 1.54 1.53 1.55 1.58 1.63 1.63 1.59 1.60 1.61 1.62 1.64 1.61 1.58 1.59 1.63 1.61 1.57 1.57 1.57 1.54 1.50 1.47 1.51 1.52 1.51 1.45 1.47 1.50 1.46 1.42 1.43 1.50 1.52 1.50 1.48 1.50
1.33 1.36 1.39 1.45 1.48 1.50 1.50 1.52 1.54 1.59 1.65 1.70 1.70 1.65 1.64 1.60 1.60 1.61 1.62 1.63 1.64 1.64 1.62 1.59 1.55 1.51 1.52 1.52 1.51 1.50 1.49 1.47 1.46 1.51 1.51 1.52 1.51 1.47 1.48 1.45 1.46 1.52
1.29 1.33 1.35 1.39 1.42 1.44 1.45 1.47 1.48 1.53 1.60 1.67 1.66 1.67 1.68 1.66 1.63 1.63 1.64 1.67 1.65 1.63 1.63 1.60 1.55 1.50 1.49 1.49 1.48 1.47 1.48 1.50 1.48 1.48 1.52 1.54 1.57 1.52 1.55 1.60 1.58 1.53
1.31 1.31 1.33 1.36 1.36 1.40 1.41 1.43 1.45 1.49 1.53 1.55 1.60 1.63 1.67 1.66 1.64 1.61 1.60 1.62 1.61 1.59 1.55 1.50 1.46 1.45 1.47 1.47 1.46 1.46 1.46 1.51 1.53 1.51 1.49 1.48 1.51 1.57 1.59 1.54 1.48 1.39
1.31 1.33 1.33 1.34 1.32 1.35 1.37 1.40 1.43 1.46 1.50 1.49 1.52 1.54 1.53 1.57 1.57 1.54 1.51 1.46 1.45 1.46 1.45 1.43 1.39 1.38 1.41 1.42 1.43 1.45 1.46 1.48 1.53 1.56 1.56 1.55 1.54 1.55 1.67 1.70 1.66 1.59
1.32 1.33 1.30 1.29 1.29 1.32 1.33 1.37 1.37 1.39 1.43 1.44 1.45 1.43 1.45 1.47 1.46 1.46 1.43 1.38 1.32 1.32 1.36 1.39 1.40 1.39 1.38 1.42 1.46 1.50 1.50 1.51 1.53 1.55 1.57 1.57 1.59 1.64 1.66 1.65 1.64 1.64
1.33 1.36 1.31 1.27 1.28 1.30 1.31 1.32 1.33 1.33 1.35 1.38 1.41 1.38 1.39 1.40 1.38 1.38 1.35 1.32 1.30 1.27 1.27 1.32 1.35 1.37 1.37 1.38 1.41 1.45 1.48 1.52 1.53 1.52 1.56 1.54 1.57 1.63 1.70 1.69 1.61 1.63
1.34 1.37 1.37 1.32 1.29 1.29 1.31 1.32 1.31 1.31 1.32 1.33 1.36 1.34 1.31 1.31 1.33 1.34 1.35 1.32 1.32 1.34 1.33 1.35 1.39 1.42 1.41 1.40 1.40 1.44 1.48 1.48 1.48 1.48 1.48 1.51 1.56 1.67 1.75 1.72 1.72 1.72
1.35 1.39 1.39 1.37 1.35 1.33 1.30 1.30 1.32 1.33 1.33 1.36 1.38 1.34 1.30 1.27 1.28 1.29 1.32 1.34 1.35 1.37 1.39 1.40 1.41 1.42 1.44 1.46 1.47 1.47 1.46 1.45 1.42 1.44 1.41 1.43 1.46 1.53 1.61 1.66 1.69 1.71
1.41 1.42 1.44 1.43 1.40 1.36 1.31 1.27 1.30 1.34 1.36 1.36 1.37 1.35 1.34 1.33 1.32 1.32 1.30 1.31 1.36 1.38 1.39 1.39 1.36 1.35 1.36 1.38 1.40 1.43 1.44 1.40 1.41 1.38 1.37 1.37 1.40 1.48 1.57 1.66 1.73 1.76
1.51 1.48 1.47 1.46 1.43 1.39 1.36 1.30 1.30 1.34 1.38 1.36 1.33 1.34 1.35 1.37 1.36 1.38 1.38 1.36 1.37 1.40 1.41 1.39 1.35 1.32 1.29 1.29 1.32 1.35 1.43 1.49 1.50 1.43 1.41 1.40 1.44 1.57 1.63 1.66 1.72 1.78
1.62 1.55 1.51 1.48 1.47 1.43 1.42 1.38 1.33 1.34 1.36 1.38 1.37 1.36 1.36 1.40 1.40 1.39 1.40 1.42 1.42 1.41 1.40 1.41 1.42 1.43 1.40 1.37 1.41 1.51 1.56 1.57 1.55 1.51 1.50 1.51 1.54 1.59 1.64 1.72 1.75 1.74
1.70 1.65 1.58 1.54 1.53 1.48 1.46 1.46 1.42 1.37 1.36 1.39 1.40 1.38 1.40 1.45 1.46 1.45 1.46 1.48 1.49 1.50 1.49 1.51 1.55 1.66 1.69 1.70 1.73 1.76 1.77 1.72 1.70 1.65 1.62 1.63 1.67 1.70 1.71 1.72 1.71 1.71
1.79 1.74 1.67 1.64 1.62 1.60 1.58 1.56 1.52 1.46 1.42 1.41 1.39 1.43 1.46 1.45 1.49 1.52 1.52 1.56 1.58 1.59 1.62 1.67 1.72 1.82 1.87 1.91 1.94 1.96 1.96 1.90 1.85 1.81 1.73 1.67 1.66 1.67 1.68 1.70 1.72 1.71
1.81 1.81 1.75 1.73 1.77 1.78 1.73 1.66 1.61 1.57 1.55 1.52 1.52 1.53 1.50 1.52 1.55 1.56 1.59 1.61 1.65 1.67 1.70 1.76 1.81 1.86 1.85 1.88 1.95 2.00 2.01 1.99 1.93 1.90 1.86 1.79 1.72 1.68 1.66 1.63 1.62 1.61
1.77 1.81 1.81 1.81 1.81 1.84 1.84 1.79 1.74 1.71 1.68 1.65 1.62 1.59 1.57 1.57 1.60 1.61 1.64 1.66 1.71 1.77 1.81 1.85 1.90 1.91 1.88 1.87 1.91 1.98 2.02 2.03 2.00 1.95 1.90 1.86 1.82 1.75 1.72 1.68 1.62 1.58
1.83 1.82 1.82 1.84 1.84 1.83 1.83 1.84 1.83 1.82 1.78 1.78 1.74 1.72 1.71 1.70 1.71 1.71 1.69 1.70 1.75 1.80 1.82 1.84 1.92 1.95 1.92 1.90 1.92 1.98 2.05 2.08 2.05 1.98 1.93 1.91 1.89 1.87 1.81 1.73 1.64 1.57
2.04 1.97 1.93 1.91 1.90 1.90 1.92 1.91 1.89 1.87 1.86 1.88 1.80 1.77 1.74 1.74 1.74 1.75 1.75 1.71 1.68 1.70 1.70 1.76 1.85 1.92 1.92 1.91 1.94 1.99 2.03 2.05 2.04 2.01 1.97 1.94 1.92 1.90 1.83 1.76 1.72 1.69
2.15 2.11 2.02 2.01 1.96 1.94 1.96 1.97 1.98 1.98 1.90 1.90 1.84 1.81 1.78 1.79 1.82 1.80 1.78 1.72 1.67 1.66 1.69 1.70 1.76 1.82 1.84 1.88 1.95 2.00 2.02 2.00 2.00 1.97 1.95 1.94 1.93 1.93 1.90 1.84 1.83 1.80
2.12 2.08 2.05 2.00 1.91 1.87 1.84 1.84 1.92 2.00 2.03 2.00 1.94 1.91 1.87 1.87 1.86 1.82 1.79 1.76 1.74 1.72 1.75 1.72 1.73 1.76 1.80 1.86 1.95 2.00 2.01 1.97 1.94 1.93 1.87 1.87 1.89 1.90 1.94 1.91 1.88 1.85
2.15 2.12 2.09 2.03 1.97 1.89 1.87 1.92 1.99 2.01 2.02 2.00 1.96 1.94 1.93 1.95 1.95 1.90 1.83 1.80 1.80 1.74 1.71 1.74 1.74 1.77 1.83 1.88 1.94 1.97 1.97 1.94 1.91 1.82 1.75 1.79 1.87 1.88 1.84 1.85 1.84 1.83
Wind_Speed
15 14 14 14 13 13 13 12 11 11 11 10 10 10 10 10 10 10 9 9 9 9 9 9 9 9 9 8 8 8 7 7 8 8 8 8 8 8 8 7 7 6
15 15 15 14 14 13 13 13 12 11 11 10 10 10 10 10 10 10 9 9 9 9 9 9 9 8 8 8 8 8 7 7 7 7 7 8 7 8 8 8 7 7
16 16 15 15 14 14 13 13 12 12 11 11 10 10 10 10 10 10 9 9 8 8 8 8 8 8 8 8 8 7 7 7 7 7 7 7 7 7 8 8 7 7
17 16 16 15 15 14 14 13 13 12 12 11 11 11 10 10 10 10 9 9 8 8 8 8 7 7 8 8 8 8 8 7 7 7 7 7 7 7 7 7 7 7
18 17 16 16 15 15 14 14 14 13 12 12 12 11 11 10 10 10 9 9 9 8 8 8 7 7 8 8 8 8 8 7 7 7 7 7 7 6 6 7 7 7
19 18 17 16 16 15 15 15 14 14 13 13 12 12 11 11 11 10 10 9 9 9 8 8 8 7 7 8 8 8 8 8 7 7 7 7 7 7 7 7 7 7
19 19 18 17 17 16 16 15 15 14 14 13 13 12 12 11 11 11 10 10 9 9 9 8 8 8 8 8 8 8 8 8 8 8 7 7 7 7 7 7 7 7
19 19 19 18 18 17 16 16 15 15 14 14 14 13 12 12 11 11 11 10 10 10 9 9 9 8 8 8 8 8 8 8 8 8 8 7 7 7 7 7 7 7
19 19 19 19 18 18 17 17 16 15 15 14 14 13 13 13 12 12 11 11 11 10 10 10 9 9 8 8 8 8 8 8 8 8 8 8 8 7 7 8 8 8
20 20 20 19 19 19 18 17 17 16 15 15 14 14 14 13 13 12 12 11 11 11 10 10 10 9 9 9 9 9 9 9 9 9 9 9 9 9 9 9 9 8
20 20 20 20 19 19 19 18 17 17 16 16 15 15 14 14 13 13 13 12 12 12 11 11 10 10 10 10 11 11 10 10 10 10 10 10 10 11 10 10 10 10
20 20 20 20 20 19 19 18 18 18 17 17 16 16 16 15 15 14 14 13 13 12 12 12 11 11 12 12 12 12 12 12 11 11 11 12 12 12 11 11 11 11
21 20 20 20 20 20 19 19 19 18 18 18 17 17 16 16 16 16 15 15 14 13 13 13 13 12 12 12 12 13 13 13 12 11 12 13 13 12 12 12 12 12
21 21 20 20 20 19 19 20 19 19 19 19 18 18 17 17 17 17 17 16 16 15 14 14 14 13 13 13 13 13 14 14 13 13 13 13 13 13 13 13 13 13
21 21 21 20 20 20 19 20 20 20 19 19 19 19 18 18 17 17 17 17 17 16 15 15 15 15 15 15 15 15 15 15 14 14 14 14 14 14 14 14 13 13
22 22 21 21 21 21 20 20 20 20 20 20 19 19 19 19 18 17 17 17 17 17 16 16 16 16 16 16 16 16 15 15 15 15 15 15 15 15 14 14 14 14
22 22 22 22 22 21 21 21 20 20 20 20 20 19 19 19 19 18 18 18 17 17 17 17 16 16 16 16 16 16 16 16 16 15 15 15 15 15 15 15 15 16
23 22 22 22 22 22 22 21 21 20 20 20 20 20 20 19 19 19 19 18 18 18 18 18 17 17 17 16 16 16 16 16 16 16 16 16 16 16 16 16 16 16
24 23 22 22 22 22 22 22 21 21 20 20 20 20 19 19 19 19 19 19 19 18 18 18 18 19 18 18 17 17 17 17 17 17 17 17 17 17 17 17 17 17
25 25 24 23 23 23 22 22 22 21 21 20 20 20 20 20 20 20 20 20 19 19 19 19 19 19 20 20 19 19 19 19 18 19 18 18 18 18 18 17 17 18
27 26 25 25 24 24 24 23 23 22 21 21 21 21 20 20 20 20 20 20 20 20 20 20 19 20 20 20 20 21 21 20 20 20 20 19 19 19 19 18 18 18
28 27 27 26 26 26 25 24 24 23 22 22 21 21 21 21 21 21 21 21 21 21 21 21 21 20 20 20 21 21 21 21 21 21 21 20 20 20 20 20 19 19
29 28 27 27 26 25 24 23 23 23 23 22 22 22 22 22 22 22 22 22 22 22 22 22 22 21 21 21 22 22 22 22 21 22 22 22 21 21 21 21 20 20
28 27 26 25 24 23 23 22 22 22 23 22 22 22 22 22 22 22 22 22 22 22 22 22 22 22 22 22 22 23 23 23 22 22 23 23 22 22 21 21 21 21
28 27 26 25 25 24 23 23 22 22 22 23 23 23 23 23 23 23 23 23 23 23 23 23 23 23 23 23 23 23 23 23 23 24 24 24 23 23 22 22 22 23
27 27 27 26 25 24 23 23 23 23 23 23 23 23 23 23 23 23 23 23 23 23 24 24 24 24 24 24 24 24 24 24 24 24 24 24 24 24 24 24 24 24
Wind_Direction
182 181 181 181 180 179 179 179 178 176 174 175 174 174 175 176 176 176 178 182 186 188 190 193 197 201 205 209 212 215 216 217 221 223 224 226 226 227 230 234 236 238
185 185 184 184 184 183 182 182 181 179 179 179 179 179 180 181 181 181 182 184 188 192 194 196 200 203 206 210 212 215 217 219 222 225 228 229 229 231 234 237 238 242
189 189 188 188 187 186 187 186 185 185 184 185 184 185 185 185 186 188 188 188 191 195 198 199 201 204 208 211 214 216 217 219 223 225 227 230 232 234 236 239 242 245
193 193 193 192 191 190 190 189 189 189 190 191 191 190 190 189 190 193 193 193 195 198 201 203 206 209 212 213 215 218 219 220 223 225 227 231 235 236 237 240 243 245
197 197 197 196 195 193 193 192 193 193 194 195 195 195 196 194 195 199 199 200 201 202 205 207 210 213 214 214 216 219 221 223 225 226 230 234 237 241 243 243 243 245
200 200 199 200 199 197 196 197 197 197 197 198 196 197 198 199 201 204 205 207 207 208 209 211 212 213 213 213 216 220 222 224 226 227 232 236 239 243 245 246 245 245
202 202 202 202 202 201 202 202 201 201 201 200 199 199 201 202 205 208 210 213 214 214 214 216 217 217 216 217 219 222 224 226 227 229 233 237 238 240 243 245 247 248
203 204 204 205 205 205 206 206 205 205 205 204 204 204 205 206 208 210 212 216 218 219 220 222 224 222 221 222 224 225 225 227 230 232 236 239 239 241 243 245 249 252
204 205 206 206 207 208 208 208 208 208 207 207 208 209 210 211 212 214 216 218 219 220 223 226 228 226 225 227 229 229 228 230 233 235 238 241 241 242 244 246 249 251
207 207 208 209 209 210 210 210 210 210 210 210 211 213 213 215 216 218 219 221 222 222 224 228 228 228 230 233 235 235 235 238 240 242 242 241 241 243 245 246 248 250
208 209 210 211 211 212 213 213 213 214 215 215 215 216 217 217 219 219 220 223 225 225 226 228 229 230 234 238 239 239 240 243 246 248 247 244 245 248 249 250 251 254
209 210 211 212 213 214 214 215 216 216 218 218 218 219 220 220 221 222 223 225 227 228 229 231 233 236 238 241 242 242 243 245 249 252 250 248 248 251 253 255 256 257
210 211 212 213 214 215 216 216 217 218 219 219 220 221 222 223 224 226 227 227 229 230 231 233 235 238 241 242 243 243 244 248 252 253 252 251 252 253 255 257 258 259
212 212 213 214 215 216 217 217 218 219 220 221 222 223 224 224 226 227 228 229 230 232 234 235 237 240 242 243 244 245 248 251 254 253 251 252 253 254 256 258 260 262
213 213 215 216 216 217 218 218 218 220 222 223 224 226 227 228 228 229 229 230 231 234 236 238 241 243 245 246 247 249 251 253 253 252 251 252 253 255 257 259 261 263
215 215 216 218 218 219 220 220 220 222 224 225 225 226 228 230 231 230 230 230 231 234 238 242 245 247 246 247 248 249 252 253 253 252 253 254 255 256 259 261 263 265
216 216 217 218 220 221 221 222 222 223 225 226 226 227 229 230 231 231 231 231 233 237 241 245 248 248 246 246 247 248 250 251 252 253 255 255 256 258 260 262 264 266
216 217 217 219 220 221 222 222 223 224 225 226 227 228 229 229 230 231 232 234 237 240 243 246 248 248 246 245 247 248 249 249 250 253 256 257 258 260 262 264 266 267
217 218 218 219 220 221 221 222 222 223 225 226 227 228 228 229 230 232 234 237 239 242 244 247 249 249 247 246 246 248 249 250 251 253 256 259 260 261 264 266 268 269
220 221 221 221 221 221 222 222 223 224 225 227 228 229 230 231 232 234 236 238 241 244 246 248 250 251 250 249 247 248 250 252 253 255 257 260 261 262 264 266 267 269
221 222 223 223 223 223 223 224 225 225 227 229 231 232 234 235 236 238 239 241 243 245 247 250 251 252 252 251 249 249 251 253 255 256 258 259 261 262 264 266 267 269
223 224 225 225 225 225 226 226 226 227 229 231 234 236 237 239 240 242 243 245 246 248 249 251 252 253 253 252 251 251 252 253 255 256 257 259 260 262 264 266 268 269
225 224 225 226 226 226 228 228 228 229 231 234 236 238 239 241 242 244 246 247 248 249 250 251 252 253 254 254 253 253 253 254 256 257 258 259 261 263 264 266 268 269
227 225 226 228 228 229 232 233 232 232 234 235 237 238 240 242 244 246 248 250 250 251 251 251 251 253 255 255 255 255 254 255 256 257 259 260 261 263 265 266 268 269
230 229 229 230 229 230 233 234 234 234 236 237 238 239 242 243 245 247 249 250 251 251 251 251 251 253 255 256 256 256 256 257 258 259 260 261 262 263 265 267 269 270
230 229 228 228 228 229 231 233 234 235 237 239 240 241 243 245 247 248 249 251 252 252 252 252 252 253 255 256 256 257 257 258 259 260 260 261 261 263 264 266 268 269